| time (UTC) | temp C | wind direction | speed KPH | gust KPH | rain 1hr cm | rain 24hr cm | rain mn cm | humidity % | barometer mb |
| 20260504080210 | 19 | 346 | 8.0 | 0.0 | 0.00 | 0.00 | 0.00 | 52 | 1012.5 |
| 20260504070211 | 15 | 36 | 3.2 | 0.0 | 0.00 | 0.00 | 0.00 | 65 | 1012.6 |
| 20260504060212 | 11 | 32 | 3.2 | 0.0 | 0.00 | 0.00 | 0.00 | 75 | 1012.7 |
| 20260504050210 | 8 | 32 | 0.0 | 0.0 | 0.00 | 0.00 | 0.00 | 83 | 1012.9 |
| 20260504043211 | 8 | 32 | 0.0 | 0.0 | 0.00 | 0.00 | 0.00 | 82 | 1012.8 |
| 20260504040211 | 8 | 32 | 3.2 | 0.0 | 0.00 | 0.00 | 0.00 | 81 | 1012.7 |
| 20260504033211 | 9 | 275 | 1.6 | 0.0 | 0.00 | 0.00 | 0.00 | 79 | 1013.1 |
| 20260504030212 | 10 | 275 | 3.2 | 0.0 | 0.00 | 0.00 | 0.00 | 77 | 1013.1 |
| 20260504023211 | 11 | 265 | 8.0 | 0.0 | 0.00 | 0.00 | 0.00 | 74 | 1013.2 |
| 20260504020212 | 11 | 271 | 0.0 | 0.0 | 0.00 | 0.00 | 0.00 | 72 | 1012.9 |
| 20260504013211 | 11 | 0 | 0.0 | 0.0 | 0.00 | 0.00 | 0.00 | 72 | 1012.9 |
| 20260504010211 | 11 | 271 | 0.0 | 0.0 | 0.00 | 0.00 | 0.00 | 71 | 1013.2 |
| 20260504003210 | 11 | 271 | 0.0 | 0.0 | 0.00 | 0.00 | 0.00 | 69 | 1013.4 |
| 20260504000208 | 11 | 271 | 0.0 | 0.0 | 0.00 | 0.00 | 0.00 | 68 | 1013.5 |
| 20260503233209 | 12 | 271 | 0.0 | 0.0 | 0.00 | 0.00 | 0.00 | 65 | 1013.7 |
| 20260503230209 | 12 | 271 | 4.8 | 0.0 | 0.00 | 0.00 | 0.00 | 63 | 1013.8 |
| 20260503223210 | 12 | 258 | 3.2 | 0.0 | 0.00 | 0.00 | 0.00 | 62 | 1013.9 |
| 20260503220212 | 13 | 252 | 3.2 | 0.0 | 0.00 | 0.00 | 0.00 | 60 | 1013.5 |
| 20260503213210 | 13 | 217 | 0.0 | 0.0 | 0.00 | 0.00 | 0.00 | 58 | 1013.4 |
| 20260503210211 | 14 | 217 | 1.6 | 0.0 | 0.00 | 0.00 | 0.00 | 55 | 1013.2 |
| 20260503203209 | 15 | 217 | 3.2 | 0.0 | 0.00 | 0.00 | 0.00 | 51 | 1012.9 |
| 20260503200211 | 16 | 326 | 11.3 | 0.0 | 0.00 | 0.00 | 0.00 | 46 | 1012.2 |
| 20260503193210 | 17 | 307 | 19.3 | 0.0 | 0.00 | 0.00 | 0.00 | 43 | 1011.9 |
| 20260503190210 | 18 | 275 | 12.9 | 0.0 | 0.00 | 0.00 | 0.00 | 43 | 1012.0 |
| 20260503183209 | 20 | 267 | 6.4 | 0.0 | 0.00 | 0.00 | 0.00 | 47 | 1011.0 |
| 20260503180210 | 21 | 321 | 9.7 | 0.0 | 0.00 | 0.00 | 0.00 | 45 | 1010.6 |
| 20260503173209 | 21 | 300 | 11.3 | 0.0 | 0.00 | 0.00 | 0.00 | 41 | 1010.4 |
| 20260503170211 | 22 | 189 | 3.2 | 0.0 | 0.00 | 0.00 | 0.00 | 39 | 1010.4 |
| 20260503160211 | 22 | 200 | 6.4 | 0.0 | 0.00 | 0.00 | 0.00 | 31 | 1010.3 |
| 20260503150209 | 24 | 181 | 6.4 | 0.0 | 0.00 | 0.00 | 0.00 | 30 | 1010.4 |
| 20260503140210 | 25 | 319 | 11.3 | 0.0 | 0.00 | 0.00 | 0.00 | 26 | 1010.6 |
| 20260503130210 | 24 | 201 | 11.3 | 0.0 | 0.00 | 0.00 | 0.00 | 30 | 1011.5 |
| 20260503120210 | 23 | 223 | 8.0 | 0.0 | 0.00 | 0.00 | 0.00 | 34 | 1012.0 |
| 20260503110210 | 23 | 211 | 11.3 | 0.0 | 0.00 | 0.00 | 0.00 | 38 | 1012.5 |
| 20260503100212 | 21 | 171 | 9.7 | 0.0 | 0.00 | 0.00 | 0.00 | 50 | 1013.2 |